Regional Weather Roundup
Issued by NWS Bismarck, ND

Home | Current Version | Previous Version | Text Only | Print | Product List | Glossary On
Versions: 1 2 3 4 5 6 7 8 9 10 11 12 13 14 15 16 17 18 19 20 21 22 23 24 25 26 27 28 29 30 31 32 33 34 35 36 37 38 39 40 41 42 43 44 45 46 47 48 49 50
000
ASUS43 KBIS 282310
RWRBIS

NWR BROADCAST TEXT
NATIONAL WEATHER SERVICE BISMARCK ND
600 PM CDT THU JUL 28 2016

NOTE: "FAIR" INDICATES FEW OR NO CLOUDS BELOW 12,000 FEET WITH NO
SIGNIFICANT WEATHER AND/OR OBSTRUCTIONS TO VISIBILITY.


CITY           SKY/WX    TMP DP  RH WIND       PRES   REMARKS
WILLISTON      PTSUNNY   76  50  40 E3        30.12F
MINOT          MOSUNNY   80  52  37 NE8       30.11F
MINOT AFB      NOT AVBL
BISMARCK       CLOUDY    73  55  53 N7        30.11S
DICKINSON      CLOUDY    65  57  75 E6        30.14S
GARRISON         N/A     73  54  51 NE5       30.13S
HETTINGER ARPT CLOUDY    69  59  70 E12       30.14S
JAMESTOWN      MOSUNNY   73  61  65 NE7       30.07S
BEACH          FAIR      72  61  68 E9        30.17S
CARRINGTON     FAIR      73  59  60 E9        30.11F
HAZEN          CLOUDY    70  55  60 NE6       30.15S
LINTON         MOCLDY    73  63  68 N5        30.12R
MANDAN         MOCLDY    73  55  53 NE6       30.13S
OAKES            N/A    N/A N/A N/A MISG        N/A
STANLEY        FAIR      70  54  56 E6        30.16S
WATFORD CITY     N/A    N/A N/A N/A MISG        N/A
$$

CITY           SKY/WX    TMP DP  RH WIND       PRES   REMARKS
GRAND FORKS    MOSUNNY   77  57  50 N10       30.08F
GRAND FORKS AF MOSUNNY   75  57  53 N9        30.10F
DEVILS LAKE    SUNNY     72  57  59 N7        30.11F
FARGO          MOSUNNY   79  60  52 N16       30.05S
CAVALIER       FAIR      73  55  53 NE6       30.11S
GRAFTON        FAIR      73  55  53 N6        30.12S
GWINNER        FAIR      79  57  47 NE5       30.06S
LANGDON        FAIR      72  54  53 N6        30.13F
ROLLA          FAIR      72  50  46 N6        30.14F
$$

CITY           SKY/WX    TMP DP  RH WIND       PRES   REMARKS
ABERDEEN       CLOUDY    77  58  51 E3        30.05F
MOBRIDGE       PTSUNNY   80  54  40 NE10      30.06F
BUFFALO          N/A     67  62  84 NE8       30.08S
RAPID CITY     CLOUDY    73  54  51 N9        30.11F
GLASGOW        PTSUNNY   78  54  43 VRB6      30.10F
SIDNEY         SUNNY     78  54  43 NE9       30.11F
WOLF POINT     SUNNY     80  53  39 E9        30.11F
GLENDIVE       PTSUNNY   76  56  49 NE9G20    30.12F
MILES CITY     MOSUNNY   79  53  40 VRB5      30.10F
BAKER          LGT RAIN  67  62  84 VRB3      30.13S
$$

CITY           SKY/WX    TMP DP  RH WIND       PRES   REMARKS
BILLINGS       MOSUNNY   81  51  35 E10       30.13F
GREAT FALLS    SUNNY     86  43  22 NE8       30.10F
REGINA         MOSUNNY   77  52  41 S8        30.12S
ESTEVAN        PTSUNNY   75  54  46 SE5       30.12F
$$





USA.gov is the U.S. government's official web portal to all federal, state and local government web resources and services.